カタログに戻る

BREEZE-M DEB

運用中HEO
NORAD 38621·DEBRIS·🇷🇺 Russia

打ち上げ Mar 14, 2008 から Baikonur Cosmodrome

Loading…

次のパス (今後24時間)

TLE

最新Source: Space-Track

元期: Sep 11, 2026, 11:35 UTC

1 38621U 08011BU  26254.48315058  .00001591  00000-0  64355-1 0  9993
2 38621  49.1145   8.5937 6410185 233.0081  49.8235  3.02446171 26175

AllMySatでBREEZE-M DEBをリアルタイム追跡

Download on the App Store